Weather Roundup
Issued by NWS Springfield, MO

Home | Current Version | Previous Version | Text Only | Print | Product List | Glossary On
Versions: 1 2 3 4 5 6 7 8 9 10 11 12 13 14 15 16 17 18 19 20 21 22 23 24 25 26 27 28 29 30 31 32 33 34 35 36 37 38 39 40 41 42 43 44 45 46 47 48 49 50
000
NZUS99 KSGF 261159
HRRSGF

HOURLY WEATHER
NATIONAL WEATHER SERVICE SPRINGFIELD MO
600 AM CST MON JAN 26 2015

......SGF CWA......

CITY           SKY/WX    TMP DP  RH WIND       PRES   REMARKS
SPRINGFIELD    CLOUDY    32  28  85 SW3       30.07F
6HR MIN TEMP:  32; 6HR MAX TEMP:  35;

JOPLIN         CLEAR     26  24  92 S5        30.11F WCI  20
6HR MIN TEMP:  25; 6HR MAX TEMP:  36;

WEST PLAINS    CLOUDY    32  27  81 NW8       30.05R WCI  25
6HR MIN TEMP:  32; 6HR MAX TEMP:  33;

ROLLA          CLOUDY    29  25  85 W8        30.02F WCI  21
6HR MIN TEMP:  29; 6HR MAX TEMP:  30;

OSAGE BEACH    CLOUDY    32  27  80 SW5       30.06F WCI  27

......SURROUNDING SGF CWA......

CITY           SKY/WX    TMP DP  RH WIND       PRES   REMARKS
CHANUTE        CLEAR     22  21  96 S5        30.09F WCI  16
PARSONS        CLEAR     22  20  92 CALM      30.12F
COFFEYVILLE    CLEAR     24  22  91 SW3       30.12F
EMPORIA        CLEAR     29  27  92 S9        30.03F WCI  20
SILOAM SPRINGS CLEAR     28  21  74 CALM      30.14R
HARRISON AR    CLOUDY    35  29  78 NW10      30.09R WCI  27
NEAR YELLVILLE CLOUDY    36  27  69 NW13      30.09R WCI  27

......KANSAS AND MISSOURI......

CITY           SKY/WX    TMP DP  RH WIND       PRES   REMARKS
KANSAS CTY INT CLEAR     25  23  92 S5        30.01F WCI  19
DOWNTOWN KC    CLEAR     29  26  89 SW6       30.02F WCI  23
COLUMBIA       CLOUDY    29  27  92 SW6       30.02F WCI  23
SEDALIA        PTCLDY    29  25  85 SW7       30.05F WCI  22
ST JOSEPH      CLEAR     24  22  91 CALM      30.02F
ST LOUIS       PTCLDY    25  20  81 W6        30.04F WCI  18
SPIRIT OF STL  PTCLDY    25  21  85 W5        30.04F WCI  19
KIRKSVILLE     CLOUDY    31  27  85 SW6       30.01R WCI  25
WICHITA        CLEAR     27  23  85 S6        30.07F WCI  20
TOPEKA         CLEAR     23  22  96 CALM      30.03F FOG
OLATHE         CLEAR     26  24  92 SW5       30.02F WCI  20

......TENNESSEE......

CITY           SKY/WX    TMP DP  RH WIND       PRES   REMARKS
MEMPHIS        CLOUDY    39  29  67 N13G22    30.06R WCI  31
NASHVILLE      CLOUDY    33  29  85 NW17G26   29.92R WCI  22

......ARKANSAS.......

CITY           SKY/WX    TMP DP  RH WIND       PRES   REMARKS
FAYETTEVILLE   PTCLDY    32  27  81 W3        30.13R
FT SMITH       CLEAR     32  28  85 W8        30.16S WCI  25
LITTLE ROCK    PTCLDY    36  29  75 N3        30.12R

......OKLAHOMA.......

CITY           SKY/WX    TMP DP  RH WIND       PRES   REMARKS
TULSA          CLEAR     31  28  89 W5        30.15S WCI  26
PONCA CITY     CLEAR     26  21  81 CALM      30.12F
MCALESTER      CLEAR     25  23  92 CALM      30.17F FOG
OKLAHOMA CITY  CLEAR     30  24  78 SE3       30.13F

......IOWA............

CITY           SKY/WX    TMP DP  RH WIND       PRES   REMARKS
DES MOINES     CLOUDY    33  26  75 SW9       29.94F WCI  25
QUAD CITIES    CLOUDY    18  13  80 SE5       29.97F WCI  11

......ILLINOIS........

CITY           SKY/WX    TMP DP  RH WIND       PRES   REMARKS
QUINCY         CLOUDY    26  22  84 W3        30.03R
CHICAGO        MOCLDY    16  12  84 NW6       29.95F WCI   7



USA.gov is the U.S. government's official web portal to all federal, state and local government web resources and services.